This demonstration page uses our WeatherBlox Daily Observations layout. Learn more.

39.92423, -83.80882

Hourly Observations for June 16, 2017

Temp ( °F °C ) Dew Point ( °F °C ) Humidity (%) Winds ( mph kmh ) Pressure ( in mb ) Visibility ( mi km ) Precip ( " mm )
12:58 am 00:58 Clear 70 21.3 70 21.3 100 100 Calm 29.86 1011 10 16.0934 0 0
1:58 am 01:58 Mostly Clear 71 21.4 71 21.4 100 100 Calm 29.86 1011 10 16.0934 0 0
2:58 am 02:58 Clear 69 20.3 69 20.3 100 100 W 3 6 29.86 1011 10 16.0934 0 0
3:58 am 03:58 Clear 69 20.4 69 20.4 100 100 Calm 29.87 1012 10 16.0934 0 0
4:58 am 04:58 Mostly Clear 69 20.4 69 20.4 100 100 SSW 3 6 29.86 1011 10 16.0934 0 0
5:58 am 05:58 Clear 67 19.5 67 19.5 100 100 SW 5 7 29.87 1012 10 16.0934 0 0
6:58 am 06:58 Sunny 68 20.2 68 20.2 100 100 Calm 29.88 1012 10 16.0934 0 0
7:58 am 07:58 Sunny 72 22.1 72 22 99 99 Calm 29.89 1012 10 16.0934 0 0
8:58 am 08:58 Sunny 76 24.3 71 21.9 87 87 Calm 29.89 1012 10 16.0934 0 0
9:58 am 09:58 Sunny 77 25.2 71 21.8 82 82 NW 5 7 29.9 1013 10 16.0934 0 0
10:58 am 10:58 Sunny 80 26.6 71 21.4 73 73 N 3 6 29.89 1012 10 16.0934 0 0
11:58 am 11:58 Sunny 82 27.8 66 19.1 59 59 Calm 29.89 1012 10 16.0934 0 0
12:58 pm 12:58 Sunny 84 28.8 63 17.4 50 50 NNE 5 7 29.88 1012 10 16.0934 0 0.0254
1:58 pm 13:58 Sunny 86 29.8 64 17.9 49 49 SSE 7 11 29.86 1011 10 16.0934 0 0
2:58 pm 14:58 Sunny 87 30.5 61 16.1 42 42 SW 3 6 29.84 1010 10 16.0934 0 0
3:58 pm 15:58 Mostly Cloudy 88 31.3 61 15.9 39 39 E 5 7 29.82 1010 10 16.0934 0 0
4:58 pm 16:58 Sunny 88 31.3 59 14.8 37 37 SSE 6 9 29.82 1010 10 16.0934 0 0.0254
5:58 pm 17:58 Sunny 88 31 59 14.9 38 38 S 7 11 29.81 1009 10 16.0934 0 0
6:58 pm 18:58 Sunny 87 30.4 59 15.1 39 39 S 8 13 29.8 1009 10 16.0934 0 0
7:58 pm 19:58 Sunny 84 28.9 61 15.9 45 45 S 7 11 29.8 1009 10 16.0934 0 0.0254
8:58 pm 20:58 Sunny 79 25.9 62 16.9 58 58 S 6 9 29.81 1009 10 16.0934 0 0
9:58 pm 21:58 Clear 75 24 64 18 69 69 Calm 29.82 1010 10 16.0934 0 0
10:58 pm 22:58 Clear 72 22.3 64 18 77 77 Calm 29.82 1010 10 16.0934 0 0
11:08 pm 23:08 Clear 72 22 64 18 78 78 Calm 29.82 1010 8 12.87472 0 0
11:18 pm 23:18 Clear 72 22 64 18 78 78 Calm 29.82 1010 10 16.0934 0 0
11:58 pm 23:58 Clear 72 22.1 65 18.1 78 78 Calm 29.81 1009 10 16.0934 0 0

Powered by AerisWeather